Location: Black Swamp Observatory
(41.3920°N, 84.1250°W)
Time: 02:24:56
(UTC-04:00)

A-11 Canister half - Pass Details

Date: 27 January 2022
Orbit: 1527 x 1682 km, 47.3° (Epoch: 27 May)

Event Time Altitude Azimuth Distance (km) Brightness Sun altitude
Rises 18:37:56 0° 296° (WNW) 4,781 12.4 -9.9°
Reaches altitude 10° 18:41:21 10° 287° (WNW) 3,816 12.0 -10.5°
Maximum altitude 18:49:42 34° 228° (SW) 2,457 10.7 -12.0°
Drops below altitude 10° 18:58:16 10° 168° (SSE) 3,902 11.1 -13.6°
Sets 19:01:50 0° 159° (SSE) 4,901 11.6 -14.2°
